Время (UTC), дата Ветер
(°,м/с) 
Видим.   Явления Облачность Т
(°С)
Тd
(°С)
f(%) Тe
(°С)
Pmin
(гПа)
dP
(гПа)
Po
(мм)
O2
(г/м3)
Тmin Tmax R s Состояние
почвы
00 01.06.11 110 (В) >10 км    3/0 средняя 
[Ac trans]
+12.7 +11.3 91 +16  1016.9  -0.8  723  276           
03 01.06.11 120 (ЮВ) >10 км    1/0 верхняя 
[Ci fib]
+14.1 +12.5 90 +19  1016.9  0.3  723  275           
06 01.06.11 110 (В) >10 км    3/0 верхняя 
[Ci fib]
+20.6 +12.3 59 +26  1016.2  0.3  724  269  +12.3         
09 01.06.11 100 (В) >10 км    4/0 верхняя 
[Ci]
+24.2 +11.3 44 +28  1015.2  -0.4  723  266           
12 01.06.11 090 (В) >10 км    4/0 верхняя 
[Ci fib]
+25.1 +11.9 44 +30  1014.4  -0.6  723  264           
15 01.06.11 100 (В) >10 км    6/0 верхняя 
[Ci fib]
+24.1 +14.4 55 +33  1014  -0.5  722  265    +25.2       
18 01.06.11 100 (В) >10 км    8/0 средняя, верхняя 
[Ac trans|Ci fib]
+19.9 +14 69 +29  1014.7  -0.5  722  268    +25.2       
21 01.06.11 050 (СВ) >10 км    6/0 средняя 
[Ac trans]
+18.9 +13.3 70 +27  1014  -0.8  722  269           
00 02.06.11 140 (ЮВ) >10 км    3/0 средняя 
[Ac trans]
+15.2 +11.7 80 +20  1014  -0.7  721  273           
03 02.06.11 050 (СВ) >10 км    5/0 средняя, верхняя 
[Ac trans|Ci fib]
+16.5 +10.7 69 +20  1013.3  -0.4  721  272           
06 02.06.11 080 (В) >10 км    8/0 средняя, верхняя 
[Ac trans|Ci fib]
+20.7 +11.8 57 +25  1013  0.4  721  268  +15         
09 02.06.11 060 (СВ) >10 км    8/0 средняя, верхняя 
[Ac trans|Ci fib]
+24.2 +11.7 46 +29  1011.9  -0.4  721  265           
12 02.06.11 080 (В) >10 км    9/0 средняя, верхняя 
[Ac trans|Ci fib]
+23.7 +10.7 44 +27  1012.4  0.3  721  265           
15 02.06.11 060 (СВ) >10 км    9/0 средняя, верхняя 
[Ac trans|Ci fib]
+21.6 +11.5 53 +26  1011.7  -1  720  267    +24.6       
18 02.06.11 050 (СВ) >10 км    6/3 1000 м средняя, верхняя 
[Sc|Ac trans|Ci fib]
+18.1 +7.9 51 +18  1013.5  1.1  721  271    +24.6       
21 02.06.11 070 (В) >10 км    6/0 средняя 
[Ac trans]
+14.7 +7.4 62 +15  1014.4  0.2  721  275           
00 03.06.11 060 (СВ) >10 км    6/0 средняя 
[Ac trans]
+14.9 +5.9 55 +16  1014.2  0.2  721  275           
03 03.06.11 120 (ЮВ) >10 км    6/0 средняя, верхняя 
[Ac trans|Ci fib]
+17.4 +7.4 52 +19  1014  0.3  722  272           
06 03.06.11 090 (В) >10 км    3/0 верхняя 
[Ci fib]
+21.4 +13.6 61 +29  1013.6  0.4  722  267  +13.4         
09 03.06.11 080 (В) >10 км    5/5 600 м 
[Cu hum]
+23.9 +9.1 39 +25  1013.6  0.3  722  266           
12 03.06.11 090 (В) >10 км    4/4 1000 м 
[Cu hum]
+24.9 +8.5 35 +25  1013  -0.4  722  265           
15 03.06.11 060 (СВ) >10 км    3/0 средняя 
[Cu hum|Ac trans]
+24 +7.8 35 +24  1012.8  -0.3  722  266    +25       
18 03.06.11 010 (С) >10 км    3/0 средняя 
[Ac trans]
+20.1 +9.3 50 +21  1014  0.5  722  269    +25       
21 03.06.11 250 (З) >10 км    ясно 
+16.9 +9.3 61 +19  1014.2  -0.4  722  272           
00 04.06.11 300 (СЗ) >10 км    ясно 
+16.5 +8.9 61 +19  1013.5  -0.4  721  272           
03 04.06.11 290 (З) >10 км    3/0 средняя 
[Ac trans]
+19.8 +10.4 55 +23  1012.4  -0.5  721  269           
06 04.06.11 320 (СЗ) >10 км    3/1 600 м верхняя 
[Cu hum|Ci fib]
+23.6 +9.5 41 +25  1011.2  -0.5  720  265  +11.8         
09 04.06.11 310 (СЗ) >10 км    5/5 600 м 
[Cu hum]
+24.5 +9 37 +25  1010.4  -0.6  720  265           
12 04.06.11 300 (СЗ) >10 км    4/4 600 м 
[Cu hum]
+25.8 +9.2 35 +27  1009  -1.1  719  263           
15 04.06.11 300 (СЗ) >10 км    3/3 1000 м 
[Cu hum]
+24.8 +7.8 34 +25  1008.7  -0.4  719  264    +25.9       
18 04.06.11 280 (З) >10 км    3/1 1000 м средняя 
[Sc diur, vesp|Ac cuf]
+19.8 +9.4 51 +21  1009.8  0.2  719  268    +25.9       
21 04.06.11 280 (З) >10 км    1/0 верхняя 
[Ci fib]
+18.6 +11.8 65 +24  1009.7  -0.2  719  269           
00 05.06.11 290 (З) >10 км    3/0 средняя 
[Ac trans]
+16.1 +14.3 89 +25  1010.2  719  270           
03 05.06.11 280 (З) >10 км    6/3 1000 м кучево-дожд., средняя, верхняя 
[Cb cap|Ac cast|Cc]
+16.5 +14.4 87 +25  1010.4  0.3  719  270           
06 05.06.11 300 (СЗ) >10 км    8/5 300 м кучево-дожд., средняя 
[Cb calv|Ac trans]
+18.3 +14.4 78 +27  1010.3  0.2  719  268  +15.9         
09 05.06.11 290 (З) >10 км  гроза, ливневой дождь  9/6 180 м кучево-дожд., средняя 
[Cb cap|Ac trans]
+17.4 +15.8 90 +28  1011.1  0.2  720  269           
12 05.06.11 330 (СЗ) >10 км  {гроза, ливн. осадки}  8/5 300 м кучево-дожд., средняя 
[Cb calv|Ac trans]
+20.1 +13.3 65 +27  1010.6  -0.1  719  267           
15 05.06.11 330 (СЗ) >10 км  {гроза, ливн. осадки}  8/4 600 м кучево-дожд., верхняя 
[Cb calv|Ci fib]
+20 +13.2 65 +27  1010.8  0.2  720  268    +20.3       
18 05.06.11 330 (СЗ) >10 км  {гроза, ливн. осадки}  6/0 средняя 
[Ac trans]
+17.4 +11.1 66 +21  1012.9  1.4  721  271    +20.3     
21 05.06.11 300 (СЗ) >10 км    3/0 средняя 
[Ac trans]
+14.3 +7.6 64 +15  1013.9  0.3  721  275           
00 06.06.11 290 (З) >10 км    ясно 
+15.3 +5.7 53 +16  1013.6  0.1  721  274           
03 06.06.11 290 (З) >10 км    1/0 средняя 
[Ac trans]
+16.3 +9 62 +17  1013.7  0.3  721  273           
06 06.06.11 310 (СЗ) >10 км    ясно 
+20.5 +8.5 46 +21  1013.7  0.7  722  269  +12.2         
09 06.06.11 320 (СЗ) >10 км    6/6 600 м 
[Cu hum]
+22 +9 43 +23  1013.6  0.2  722  268           
12 06.06.11 320 (СЗ) >10 км    8/8 600 м 
[Cu med, cong]
+23.8 +9.9 41 +26  1013.3  722  266           
15 06.06.11 320 (СЗ) >10 км    1/1 1000 м 
[Sc diur, vesp]
+23.2 +8.9 40 +24  1013.2  -0.2  722  266    +24.2       
18 06.06.11 260 (З) >10 км    ясно 
+16.5 +11.4 72 +21  1015.2  0.8  722  272    +24.2       
21 06.06.11 270 (З) >10 км    ясно 
+15.3 +10.7 74 +19  1015.2  -0.2  722  273           
00 07.06.11 290 (З) >10 км    1/0 средняя, верхняя 
[Ac trans|Ci fib]
+18.2 +10 59 +21  1013.8  -0.8  722  271           
03 07.06.11 300 (СЗ) >10 км    ясно 
+18.7 +10.6 59 +22  1013.6  0.1  721  270           
06 07.06.11 280 (З) >10 км    6/4 600 м средняя 
[Cu hum|Ac trans]
+22.4 +12 52 +27  1013.4  0.4  722  266  +15.2         
09 07.06.11 310 (СЗ) >10 км    8/8 800 м кучево-дожд. 
[Cb cap]
+25 +11.3 42 +29  1013.1  0.1  722  264           
12 07.06.11 330 (СЗ) 2000 м  в посл. час гроза  6/6 1000 м кучево-дожд., верхняя 
[Cb cap|Ci fib]
+25.5 +9.5 36 +27  1012.6  -0.4  722  264           
15 07.06.11 340 (С) >10 км    6/5 1000 м кучево-дожд., верхняя 
[Cb calv|Ci fib]
+23.6 +11.5 47 +28  1013  0.1  722  265    +25.7       
18 07.06.11 260 (З) >10 км  {гроза}  3/1 1000 м кучево-дожд., средняя 
[Cb calv|Ac trans]
+18.6 +11.8 65 +23  1014.1  0.3  722  270    +25.7       
21 07.06.11 280 (З) >10 км    ясно 
+19.9 +11.7 59 +25  1013.5  0.3  722  269           
00 08.06.11 290 (З) >10 км    ясно 
+18.8 +11 60 +22  1013.3  -0.4  721  270           
03 08.06.11 280 (З) >10 км    ясно 
+18.7 +12.2 66 +24  1013.8  0.5  722  270           
06 08.06.11 280 (З) >10 км    3/0 верхняя 
[Ci fib]
+23.2 +10.7 45 +26  1013.2  0.2  722  266  +16         
09 08.06.11 270 (З) >10 км    4/1 600 м средняя, верхняя 
[Cu hum|Ac trans|Ci sp]
+24.7 +11.4 43 +29  1012.6  -0.4  721  264           
12 08.06.11 280 (З) >10 км    8/3 600 м кучево-дожд., средняя, верхняя 
[Cb cap|Ac trans|Ci]
+25.5 +10.3 38 +28  1011.5  -0.9  721  264           
15 08.06.11 320 (СЗ) >10 км    6/3 600 м средняя, верхняя 
[Sc diur, vesp|Ac cuf|Ci fib]
+21.7 +11.8 53 +26  1011.9  -0.2  721  267    +26.2       
18 08.06.11 290 (З) >10 км    3/0 средняя 
[Ac trans]
+20.2 +11.4 57 +24  1012.1  0.1  721  268    +26.2       
21 08.06.11 240 (ЮЗ) >10 км    н/о 
+15.6 +12 79 +21  1012.4  -0.5  720  272           
00 09.06.11 270 (З) >10 км    3/0 средняя 
[Ac trans]
+15.9 +12.3 79 +21  1011.8  -0.5  720  272           
03 09.06.11 280 (З) >10 км    8/3 1000 м кучево-дожд., верхняя 
[Cb calv|Ci fib]
+17.9 +13.7 76 +26  1010.9  -0.5  719  269           
06 09.06.11 330 (СЗ) >10 км    3/1 1000 м верхняя 
[Cu hum|Ci fib]
+21.6 +13.5 60 +29  1010.1  -0.1  719  266  +14.5         
09 09.06.11 270 (З) >10 км    4/3 600 м средняя, верхняя 
[Cu med, cong|Ac trans|Ci fib]
+24.4 +14.2 53 +33  1008.3  -1.1  718  263           
12 09.06.11 270 (З) >10 км    6/4 600 м кучево-дожд., верхняя 
[Cb calv|Ci]
+25.3 +13.7 49 +33  1006.6  -1.5  717  262           
15 09.06.11 300 (СЗ) >10 км    6/1 600 м кучево-дожд., верхняя 
[Cb calv|Ci fib]
+24.9 +10.7 41 +28  1005.7  -1  717  263    +25.7       
18 09.06.11 240 (ЮЗ) >10 км    4/1 600 м кучево-дожд., верхняя 
[Cb calv|Ci fib]
+15.5 +12.4 82 +22  1007.2  0.1  716  271    +25.7       
21 09.06.11 260 (З) >10 км    3/0 верхняя 
[Ci fib]
+13.3 +10.9 85 +18  1007.2  -0.4  716  273           
00 10.06.11 220 (ЮЗ) >10 км    3/0 верхняя 
[Ci fib]
+14.2 +10.6 79 +17  1006  -1  715  272           
03 10.06.11 220 (ЮЗ) >10 км    5/0 средняя, верхняя 
[Ac trans|Ci fib]
+17.5 +12.7 73 +24  1005.1  -0.2  715  268           
06 10.06.11 230 (ЮЗ) >10 км    5/3 600 м верхняя 
[Cu hum|Ci sp]
+22.7 +13.5 56 +30  1003.4  -0.8  715  263  +12.7         
09 10.06.11 240 (ЮЗ) >10 км    9/5 600 м кучево-дожд., средняя 
[Cb calv|Ac trans]
+23.3 +14.1 56 +32  1002.5  -0.7  714  262           
12 10.06.11 040 (СВ) >10 км    8/5 600 м кучево-дожд., средняя 
[Cb calv|Ac trans]
+24.1 +14.2 54 +33  1001.5  -0.8  714  261           
15 10.06.11 020 (С) >10 км    6/3 600 м кучево-дожд., средняя, верхняя 
[Cb calv|Ac trans|Ci fib]
+21.5 +13.9 62 +30  1001.7  -0.2  713  264    +25       
18 10.06.11 140 (ЮВ) >10 км    5/3 600 м кучево-дожд., средняя 
[Cb calv|Ac trans]
+17.6 +11.5 67 +23  1002.5  0.1  713  268    +25       
21 10.06.11 120 (ЮВ) >10 км  в посл. час гроза{ливн. осадки}  8/3 600 м кучево-дожд., средняя 
[Cb calv|Ac trans]
+15.9 +14.2 90 +26  1002  -0.7  713  268           
00 11.06.11 190 (Ю) >10 км  {гроза, ливн. осадки}  4/0 средняя 
[Ac trans]
+14.4 +13.6 95 +23  1001.8  -0.5  713  270           
03 11.06.11 180 (Ю) >10 км    6/0 средняя, верхняя 
[Ac trans|Ci fib]
+17.4 +15.1 86 +28  1001  -0.2  712  267           
06 11.06.11 140 (ЮВ) >10 км    8/0 верхняя 
[Ci fib]
+22.1 +13.9 60 +30  1000.3  0.1  712  263  +14.3       
09 11.06.11 180 (Ю) >10 км    9/3 600 м верхняя 
[Cu hum|Ci fib]
+23.8 +15 58 +34  1000  712  261           
12 11.06.11 360 (С) >10 км  гроза без осадков{ливн. осадки}  9/6 800 м кучево-дожд., средняя 
[Cb calv|Ac trans]
+20.8 +13.7 64 +29  999.7  -0.9  712  264           
15 11.06.11 210 (ЮЗ) 4000 м  гроза, ливневой дождь  10/8 400 м кучево-дожд., средняя 
[Cb cap|Ac und]
+14.2 +13.7 97 +22  1002.7  1.8  713  270    +25.2       
18 11.06.11 310 (СЗ) >10 км  {гроза, ливн. осадки}  10/5 600 м кучево-дожд., средняя 
[Cb calv|Ac und]
+16.1 +14.4 90 +26  1002.7  0.4  713  268    +25.2  30     
21 11.06.11 170 (Ю) >10 км  слаб. ливневой дождь  10/8 700 м кучево-дожд., средняя 
[Cb cap|Ac und]
+15.3 +14.7 96 +25  1003.4  0.5  714  269           
00 12.06.11 190 (Ю) н/о    н/о 
+15.4 +14.3 93 +25  1003  -0.4  713  269           
03 12.06.11 280 (З) >10 км    10/8 800 м кучево-дожд., средняя 
[Cb calv|Ac und]
+16.6 +14.9 90 +27  1003.2  0.4  714  268           
06 12.06.11 320 (СЗ) >10 км    10/6 600 м кучево-дожд., средняя 
[Cb calv|Ac und]
+18 +15.2 84 +29  1003.9  0.9  714  267  +14.2    0.8     
09 12.06.11 360 (С) >10 км    10/8 600 м кучево-дожд., средняя 
[Cb calv|Ac und]
+20.8 +15 69 +31  1003.4  714  264           
12 12.06.11 050 (СВ) >10 км  гроза, ливневой дождь  9/6 600 м кучево-дожд., средняя 
[Cb cap|Ac trans]
+18.5 +17 91 +33  1003.9  0.2  715  266           
15 12.06.11 030 (СВ) >10 км  {гроза, ливн. осадки}  9/5 600 м кучево-дожд., средняя 
[Cb calv|Ac trans]
+20 +15.5 75 +31  1003.9  0.2  715  265    +21.2       
18 12.06.11 200 (Ю) >10 км  {гроза, ливн. осадки}  8/5 600 м кучево-дожд., средняя 
[Cb calv|Ac trans]
+16.7 +15.6 93 +29  1005.6  1.1  716  268    +21.2  28     
21 12.06.11 280 (З) >10 км    6/3 1000 м кучево-дожд., средняя 
[Cb calv|Ac trans]
+15.5 +13.7 89 +24  1005.5  -0.3  715  270           
00 13.06.11 290 (З) н/о    н/о 
+16.8 +14.8 88 +27  1005.6  0.3  716  268           
03 13.06.11 260 (З) >10 км    9/4 600 м кучево-дожд., средняя 
[Cb calv|Ac trans]
+16.6 +15.4 93 +28  1006  0.7  716  269           
06 13.06.11 290 (З) >10 км    9/4 600 м кучево-дожд., средняя 
[Cb calv|Ac trans]
+19.1 +16.4 84 +33  1006.7  1.1  717  266  +15.1         
09 13.06.11 310 (СЗ) >10 км  гроза без осадков  8/5 600 м кучево-дожд., верхняя 
[Cb calv|Ci fib]
+22.7 +16.6 68 +36  1005.7  0.4  716  263           
12 13.06.11 160 (Ю) >10 км  гроза, ливневой дождь  9/6 300 м кучево-дожд., средняя, верхняя 
[Cb calv|Ac trans|Ci fib]
+20 +17.6 86 +35  1005.6  -0.6  716  265           
15 13.06.11 250 (З) >10 км  в посл. час гроза{ливн. осадки}  10/8 600 м кучево-дожд., средняя 
[Cb calv|Ac und]
+17.2 +15.5 90 +29  1006.6  0.4  716  268    +24.1       
18 13.06.11 220 (ЮЗ) >10 км  слаб. ливневой дождь{гроза}  10/6 600 м кучево-дожд., средняя 
[Cb cap|Ac und]
+17.1 +15.9 93 +29  1007.8  1.1  717  268    +24.1     
21 13.06.11 270 (З) >10 км  {ливн. осадки}  10/3 600 м кучево-дожд., средняя 
[Cb calv|Ac und]
+16.5 +14.9 90 +27  1007.7  -0.2  717  269           
00 14.06.11 290 (З) >10 км    8/0 средняя, верхняя 
[Ac trans|Ci fib]
+17.1 +14.1 82 +26  1007.3  -0.3  717  269           
03 14.06.11 310 (СЗ) >10 км    10/0 средняя 
[Ac und]
+17.1 +15.3 89 +28  1007.8  0.5  717  269           
06 14.06.11 310 (СЗ) >10 км    6/3 600 м средняя 
[Cu hum|Ac trans]
+21.3 +16.4 74 +34  1007.6  0.5  718  265  +16.3    0.5     
09 14.06.11 350 (С) >10 км    8/6 1000 м кучево-дожд., средняя 
[Cb calv|Ac trans]
+23.5 +15.4 60 +34  1007.4  0.2  718  263           
12 14.06.11 020 (С) >10 км  {гроза}  8/6 1000 м кучево-дожд., средняя 
[Cb calv|Ac trans]
+23.9 +15 57 +34  1006.8  -0.5  717  263           
15 14.06.11 320 (СЗ) >10 км  в посл. час гроза  8/5 1000 м кучево-дожд., верхняя 
[Cb calv|Ci fib]
+22.1 +16.5 71 +35  1007.8  0.6  718  264    +25       
18 14.06.11 340 (С) >10 км  гроза без осадков  10/5 600 м кучево-дожд., средняя 
[Cb calv|Ac und]
+19.6 +16.4 82 +33  1009.8  1.5  719  267    +25       
21 14.06.11 230 (ЮЗ) >10 км  сильн. гроза, ливневой дождь  10/6 600 м кучево-дожд., средняя 
[Cb cap|Ac und]
+16.2 +15.1 93 +26  1011.6  1.1  720  270           
00 15.06.11 270 (З) >10 км  {гроза, ливн. осадки}  8/4 600 м кучево-дожд., средняя 
[Cb calv|Ac trans]
+16.8 +15 89 +27  1010.6  -0.8  719  270           
03 15.06.11 260 (З) >10 км    8/4 1000 м кучево-дожд., средняя 
[Cb calv|Ac trans]
+16.9 +15.1 89 +27  1012.2  1.5  720  270           
06 15.06.11 310 (СЗ) >10 км    9/3 1000 м кучево-дожд., средняя 
[Cb calv|Ac trans]
+20.1 +15.5 75 +31  1013  1.3  721  267  +14.9    27     
09 15.06.11 300 (СЗ) >10 км    8/5 600 м кучево-дожд., средняя 
[Cb calv|Ac trans]
+20.1 +15.6 75 +31  1013.5  0.5  722  267           
12 15.06.11 270 (З) >10 км    10/5 1000 м кучево-дожд., средняя 
[Cb calv|Ac und]
+20.2 +15.4 74 +31  1013.5  722  267           
15 15.06.11 240 (ЮЗ) >10 км  слаб. ливневой дождь  10/6 1000 м кучево-дожд., средняя 
[Cb cap|Ac und]
+16.5 +14.6 89 +26  1014.5  0.3  722  271    +22.3       
18 15.06.11 240 (ЮЗ) >10 км  {ливн. осадки}  8/5 1000 м кучево-дожд., средняя 
[Cb calv|Ac trans]
+16.4 +14.7 90 +26  1015.3  0.7  722  271    +22.3  0.5     
21 15.06.11 250 (З) >10 км    3/3 <0100 м средняя 
[Ac trans]
+13.7 +12.5 92 +20  1016.3  0.5  723  275           
00 16.06.11 260 (З) >10 км    ясно 
+14.1 +12.5 90 +20  1016.1  -0.2  723  274           
03 16.06.11 240 (ЮЗ) >10 км    1/0 средняя 
[Ac trans]
+16.8 +14.9 89 +27  1016  0.5  723  271           
06 16.06.11 300 (СЗ) >10 км    4/4 600 м 
[Cu hum]
+20.4 +15.5 73 +31  1015.7  0.4  723  268  +13.3    0.5     
09 16.06.11 190 (Ю) >10 км    8/8 800 м кучево-дожд. 
[Cb calv]
+23.4 +16.1 64 +35  1014.9  -0.3  723  265           
12 16.06.11 190 (Ю) >10 км    8/8 800 м кучево-дожд. 
[Cb calv]
+24.2 +15.1 57 +34  1014.1  -0.6  723  264           
15 16.06.11 240 (ЮЗ) >10 км    4/3 600 м кучево-дожд., средняя 
[Cb calv|Ac trans]
+24.2 +14.4 54 +33  1013.3  -0.8  722  264    +25.5       
18 16.06.11 290 (З) >10 км    4/3 1000 м кучево-дожд., средняя 
[Cb calv|Ac trans]
+20.7 +14.3 67 +29  1014.6  0.6  722  268    +25.5       
21 16.06.11 200 (Ю) >10 км    3/1 1000 м кучево-дожд., средняя 
[Cb calv|Ac trans]
+15.9 +14 88 +25  1015.2  -0.2  722  272           
00 17.06.11 300 (СЗ) >10 км    3/0 средняя 
[Ac trans]
+16.6 +14.7 89 +26  1014.4  -0.7  722  271           
03 17.06.11 340 (С) >10 км    8/4 1000 м кучево-дожд., средняя 
[Cb calv|Ac trans]
+18.3 +15.7 85 +30  1014.3  0.3  722  269           
06 17.06.11 040 (СВ) >10 км    6/3 600 м средняя 
[Cu med, cong|Ac trans]
+23 +14.9 60 +33  1013.6  0.1  722  265  +15.2         
09 17.06.11 010 (С) >10 км    8/8 700 м кучево-дожд. 
[Cb calv]
+24.9 +16.2 58 +37  1013  -0.3  722  263           
12 17.06.11 340 (С) >10 км    8/4 600 м кучево-дожд., верхняя 
[Cb calv|Ci fib]
+25.4 +14.8 52 +35  1012.5  -0.4  722  263           
15 17.06.11 320 (СЗ) >10 км    9/3 600 м кучево-дожд., средняя 
[Cb calv|Ac trans]
+23.4 +15.1 60 +33  1013.1  0.3  722  265    +25.5       
18 17.06.11 220 (ЮЗ) >10 км    5/0 средняя, верхняя 
[Ac trans|Ci fib]
+17.9 +15.6 86 +29  1014.9  0.7  722  270    +25.5       
21 17.06.11 250 (З) >10 км    3/0 средняя 
[Ac trans]
+16.3 +14.6 90 +26  1014.6  -0.5  722  271           
00 18.06.11 300 (СЗ) >10 км    3/0 средняя 
[Ac trans]
+18.6 +14 75 +27  1014.3  0.1  722  269           
03 18.06.11 320 (СЗ) >10 км    ясно 
+19.6 +14.2 71 +28  1014.6  0.4  722  269           
06 18.06.11 050 (СВ) >10 км    1/0 средняя 
[Ac trans]
+24.4 +15.3 57 +35  1013.5  0.1  722  264  +16.3         
09 18.06.11 100 (В) >10 км    4/4 600 м 
[Cu med, cong]
+26 +14.8 50 +35  1013  -0.2  722  263           
12 18.06.11 070 (В) >10 км    4/3 600 м верхняя 
[Cu med, cong|Ci fib]
+26.2 +14.9 50 +36  1011.5  -1.4  721  262           
15 18.06.11 140 (ЮВ) >10 км    10/4 600 м кучево-дожд., средняя, верхняя 
[Cb cap|Ac trans|Ci]
+24.6 +16.4 60 +37  1011.7  0.1  721  263    +27       
18 18.06.11 120 (ЮВ) >10 км    9/3 1000 м верхняя 
[Sc diur, vesp|Ci fib]
+22.5 +14.9 62 +32  1011.6  -0.5  721  265    +27       
21 18.06.11 120 (ЮВ) >10 км    10/4 1000 м средняя, верхняя 
[Sc|Ac trans|Ci fib]
+21.3 +14.6 66 +30  1011.1  -0.6  720  266           
00 19.06.11 040 (СВ) >10 км    10/3 1000 м средняя, верхняя 
[Sc|Ac trans|Ci fib]
+20.7 +15 70 +31  1010.2  -1  719  266           
03 19.06.11 050 (СВ) >10 км    10/4 1000 м средняя 
[Sc|Ac und]
+20.1 +15.5 75 +31  1009.7  -0.5  719  266           
06 19.06.11 080 (В) >10 км  слаб. ливневой дождь  10/8 1000 м кучево-дожд., средняя 
[Cb cap|Ac und]
+20 +17.1 83 +34  1010.3  0.6  719  266  +19.1         
09 19.06.11 160 (Ю) >10 км  слаб. ливневой дождь  10/8 960 м кучево-дожд., средняя 
[Cb cap|Ac und]
+21.6 +18.5 83 +38  1010.4  0.4  720  264           
12 19.06.11 110 (В) >10 км  в посл. час ливневой дождь  10/8 900 м кучево-дожд., средняя 
[Cb calv|Ac und]
+17.7 +15.6 87 +29  1010.8  -0.2  719  269           
15 19.06.11 130 (ЮВ) >10 км  {ливн. осадки}  8/3 600 м кучево-дожд., средняя 
[Cb calv|Ac trans]
+21 +16.6 76 +34  1008.8  -1.3  718  265    +22       
18 19.06.11 070 (В) >10 км  {ливн. осадки}  8/4 1000 м кучево-дожд., средняя 
[Cb calv|Ac trans]
+17.9 +16.7 93 +32  1010  0.6  719  268    +22     
21 19.06.11 160 (Ю) >10 км    4/1 1000 м кучево-дожд., средняя 
[Cb calv|Ac trans]
+16.6 +15.9 96 +30  1009.5  -0.7  718  269           
00 20.06.11 050 (СВ) >10 км    4/0 средняя 
[Ac trans]
+16.2 +15.7 97 +29  1008.9  -0.6  718  270           
03 20.06.11 120 (ЮВ) >10 км    4/0 средняя 
[Ac trans]
+17.7 +15.5 87 +30  1008.5  -0.1  718  268           
06 20.06.11 110 (В) >10 км    4/3 1000 м кучево-дожд., средняя 
[Cb calv|Ac trans]
+21 +16.1 74 +33  1007.7  -0.2  718  265  +15.6         
09 20.06.11 060 (СВ) >10 км    8/6 600 м кучево-дожд., средняя 
[Cb calv|Ac trans]
+22 +18.5 81 +39  1007.5  0.1  718  263           
12 20.06.11 230 (ЮЗ) >10 км  гроза, ливневой дождь  10/8 600 м кучево-дожд., средняя 
[Cb cap|Ac und]
+20.1 +19 93 +38  1007.4  -0.5  717  265           
15 20.06.11 230 (ЮЗ) >10 км  гроза, ливневой дождь  10/8 600 м кучево-дожд., средняя 
[Cb cap|Ac und]
+18.3 +16.8 91 +31  1009  1.2  718  267    +23.5       
18 20.06.11 260 (З) >10 км  {гроза, ливн. осадки}  8/5 600 м кучево-дожд., средняя 
[Cb calv|Ac trans]
+17 +15.3 90 +27  1010.7  1.4  719  270    +23.5     
21 20.06.11 280 (З) >10 км    3/0 средняя 
[Ac trans]
+17.9 +15.9 88 +29  1010.2  -0.3  719  268           
00 21.06.11 250 (З) >10 км    6/4 1000 м кучево-дожд., средняя 
[Cb calv|Ac trans]
+18 +16.2 89 +30  1011.3  1.1  720  268           
03 21.06.11 230 (ЮЗ) >10 км    8/3 1000 м кучево-дожд., средняя 
[Cb calv|Ac trans]
+18.6 +16.6 88 +32  1011.3  0.1  720  268           
06 21.06.11 270 (З) >10 км    8/6 600 м кучево-дожд., средняя 
[Cb calv|Ac trans]
+21.2 +16.8 76 +34  1011.5  0.6  720  266  +16.1    0.5     
09 21.06.11 280 (З) >10 км    8/5 600 м кучево-дожд., средняя 
[Cb calv|Ac trans]
+23.7 +17.5 68 +38  1011.4  0.4  721  263           
12 21.06.11 280 (З) >10 км  {ливн. осадки}  8/3 600 м кучево-дожд., средняя 
[Cb calv|Ac trans]
+21.5 +16 71 +33  1012.5  0.7  721  266           
15 21.06.11 280 (З) н/о    н/о 
+20.3 +16.5 79 +33  1013.1  0.4  721  267    +23.8       
18 21.06.11 290 (З) >10 км    3/1 600 м кучево-дожд., средняя 
[Cb calv|As trans]
+17.1 +13 77 +23  1016.5  2.6  723  272    +23.8     
21 21.06.11 270 (З) >10 км    4/0 верхняя 
[Ci fib]
+15.5 +12.2 81 +20  1017.5  0.6  724  274           
00 22.06.11 270 (З) >10 км    ясно 
+15 +11.5 80 +18  1017.5  724  274           
03 22.06.11 260 (З) >10 км    3/0 средняя 
[Ac trans]
+16 +12.3 79 +21  1017.5  0.2  724  273           
06 22.06.11 270 (З) >10 км    4/3 600 м средняя 
[Cu hum|Ac trans]
+19.2 +12.9 67 +25  1017.2  0.3  724  270  +14.3         
09 22.06.11 270 (З) >10 км    8/6 800 м кучево-дожд., средняя 
[Cb calv|Ac trans]
+21.5 +10.3 49 +24  1016.3  -0.5  724  268           
12 22.06.11 270 (З) >10 км    6/4 1000 м кучево-дожд., средняя 
[Cb calv|Ac trans]
+22.3 +10.4 47 +25  1015.4  -0.7  723  267           
15 22.06.11 280 (З) >10 км    5/3 1000 м средняя 
[Cu hum|Ac trans]
+20.3 +11.8 58 +25  1016  0.3  723  269    +22.6       
18 22.06.11 270 (З) >10 км    3/1 1000 м кучево-дожд., средняя 
[Cb calv|Ac trans]
+15.4 +11.6 78 +20  1017.9  724  274    +22.6       
21 22.06.11 280 (З) >10 км    3/0 средняя 
[Ac trans]
+15.3 +11.4 78 +19  1017.8  -0.2  724  274           
00 23.06.11 270 (З) >10 км    4/0 средняя 
[Ac trans]
+15.2 +11.7 80 +19  1017  -0.7  723  274           
03 23.06.11 260 (З) >10 км    8/4 1000 м кучево-дожд., средняя 
[Cb calv|Ac trans]
+15.2 +11.7 80 +19  1017  0.1  723  274           
06 23.06.11 270 (З) >10 км    4/3 1000 м кучево-дожд., средняя 
[Cb calv|Ac trans]
+18.6 +12.8 69 +25  1015.9  -0.6  723  270  +13.6         
09 23.06.11 280 (З) >10 км    8/5 600 м кучево-дожд., верхняя 
[Cb calv|Ci fib]
+20.1 +12.3 61 +25  1014.8  -0.8  722  269           
12 23.06.11 290 (З) >10 км  гроза без осадков{ливн. осадки}  8/5 600 м кучево-дожд., верхняя 
[Cb calv|Ci fib]
+20.4 +10.2 52 +23  1013.6  -1.1  722  269           
15 23.06.11 300 (СЗ) >10 км  {гроза}  8/5 600 м кучево-дожд., верхняя 
[Cb calv|Ci fib]
+21.1 +9.8 48 +23  1013  -0.5  721  268    +22.5       
18 23.06.11 280 (З) >10 км    3/3 1000 м 
[Sc diur, vesp]
+17 +12.1 73 +22  1014.8  722  271    +22.5  0.0     
21 23.06.11 280 (З) >10 км    3/0 средняя 
[Ac trans]
+16 +10.3 69 +18  1014.9  0.1  722  273           
00 24.06.11 270 (З) >10 км    3/3 1000 м 
[Sc]
+14.7 +9.8 72 +16  1015  -0.2  722  274           
03 24.06.11 250 (З) >10 км    3/3 1000 м 
[Sc]
+15.6 +10.6 72 +18  1014.8  722  273           
06 24.06.11 260 (З) >10 км    3/0 средняя 
[Ac trans]
+19.9 +12.7 63 +26  1014.4  0.4  722  269  +13.7         
09 24.06.11 280 (З) >10 км    6/6 700 м кучево-дожд. 
[Cb calv]
+22.4 +12 52 +27  1013.7  -0.3  722  267           
12 24.06.11 280 (З) >10 км    8/4 600 м кучево-дожд., средняя 
[Cb calv|Ac trans]
+22.5 +11.4 49 +26  1013.1  -0.6  722  266           
15 24.06.11 300 (СЗ) >10 км    8/0 кучево-дожд., средняя 
[Cb calv|Ac trans]
+22.3 +11.3 50 +26  1012.6  -0.5  721  266    +24       
18 24.06.11 270 (З) >10 км    3/0 средняя 
[Ac trans]
+17.6 +11.5 67 +22  1013.6  0.3  721  271    +24       
21 24.06.11 270 (З) >10 км    3/0 средняя 
[Ac trans]
+16.1 +10.5 69 +19  1013.4  -0.6  721  272           
00 25.06.11 270 (З) >10 км    3/0 средняя 
[Ac trans]
+16.6 +11.2 70 +21  1012.7  -0.5  721  272           
03 25.06.11 260 (З) >10 км    ясно 
+18.1 +12.5 70 +24  1011.9  -0.5  720  270           
06 25.06.11 270 (З) >10 км    1/0 средняя 
[Ac trans]
+22.5 +13.2 56 +29  1010.1  -1  719  265  +14.2         
09 25.06.11 240 (ЮЗ) >10 км    1/0 средняя 
[Ac trans]
+25 +13.8 50 +33  1008.7  -0.9  719  263           
12 25.06.11 330 (СЗ) >10 км    3/3 600 м 
[Cu hum]
+26.5 +13.3 44 +33  1007.2  -1.1  718  261           
15 25.06.11 310 (СЗ) >10 км    3/3 600 м 
[Cu hum]
+26.3 +13.8 46 +34  1006.3  -0.9  717  261    +26.9       
18 25.06.11 010 (С) >10 км    1/0 средняя 
[Ac trans]
+21.6 +14.4 64 +30  1007.2  0.2  717  265    +26.9       
21 25.06.11 тихо ()   >10 км    3/0 средняя 
[Ac trans]
+20.7 +14.5 68 +30  1006.2  -1.1  716  265           
00 26.06.11 290 (З) >10 км    3/0 средняя 
[Ac trans]
+18.7 +13.7 73 +28  1005.6  -1  716  267           
03 26.06.11 тихо ()   >10 км    ясно 
+24.5 +15.9 59 +36  1003.9  -0.6  715  261           
06 26.06.11 110 (В) >10 км    ясно 
+24.3 +14.6 55 +34  1003.6  -0.3  715  262  +17.8         
09 26.06.11 120 (ЮВ) >10 км    1/1 600 м 
[Cu hum]
+27 +13.7 44 +35  1002.3  -0.9  714  259           
12 26.06.11 120 (ЮВ) >10 км    1/1 600 м 
[Cu hum]
+27.7 +13.7 42 +35  1001  -1.1  714  258           
15 26.06.11 130 (ЮВ) >10 км    4/1 600 м верхняя 
[Cu hum|Ci fib]
+26.8 +15.6 50 +38  1000.7  -0.3  713  258    +28       
18 26.06.11 240 (ЮЗ) >10 км    6/3 600 м кучево-дожд., верхняя 
[Cb calv|Ci]
+20.6 +14.7 69 +30  1003.3  1.4  714  265    +28       
21 26.06.11 310 (СЗ) >10 км    3/0 средняя 
[Ac trans]
+19.4 +16.5 83 +33  1004.1  0.6  715  265           
00 27.06.11 310 (СЗ) >10 км    5/0 средняя, верхняя 
[Ac trans|Ci]
+17.4 +14.5 83 +27  1005.2  0.6  715  268           
03 27.06.11 330 (СЗ) >10 км    8/4 300 м средняя 
[Sc|Ac trans]
+16.6 +14.8 89 +27  1005.3  715  269           
06 27.06.11 320 (СЗ) >10 км    10/8 200 м кучево-дожд., средняя 
[Cb calv|Ac und]
+16.9 +13.7 81 +25  1005.8  0.4  716  269  +16.4         
09 27.06.11 310 (СЗ) >10 км    10/8 300 м кучево-дожд., средняя 
[Cb calv|Ac und]
+16.1 +14 87 +24  1007  1.1  716  270           
12 27.06.11 360 (С) >10 км    10/8 450 м кучево-дожд., средняя 
[Cb calv|Ac und]
+16.3 +13.5 84 +24  1007.3  0.3  717  270           
15 27.06.11 320 (СЗ) >10 км    10/8 630 м кучево-дожд., средняя 
[Cb calv|Ac und]
+16.3 +12 76 +21  1007.2  0.1  717  270    +18.2       
18 27.06.11 350 (С) >10 км    10/8 700 м кучево-дожд., средняя 
[Cb calv|Ac und]
+14.7 +12.6 87 +21  1008.9  1.3  718  272    +18.2       
21 27.06.11 300 (СЗ) >10 км    10/8 700 м кучево-дожд., средняя 
[Cb calv|Ac und]
+14.6 +12.6 88 +21  1008.9  -0.1  718  272           
00 28.06.11 310 (СЗ) >10 км  слаб. ливневой дождь  10/8 540 м кучево-дожд., средняя 
[Cb cap|Ac und]
+13.8 +13 95 +20  1009  -0.1  718  273           
03 28.06.11 290 (З) 10 км  {ливн. осадки}  10/8 180 м кучево-дожд., средняя 
[Cb calv|Ac und]
+12.8 +12 95 +17  1010.6  1.3  719  274           
06 28.06.11 320 (СЗ) >10 км  {ливн. осадки}  6/3 600 м кучево-дожд., средняя 
[Cb calv|Ac trans]
+17.1 +12.7 75 +24  1009.8  719  270  +12.8    0.5     
09 28.06.11 340 (С) >10 км    8/6 600 м кучево-дожд., средняя 
[Cb calv|Ac trans]
+19.5 +13.2 67 +27  1009.8  0.4  719  268           
12 28.06.11 020 (С) >10 км    10/8 600 м кучево-дожд., средняя 
[Cb calv|Ac und]
+20.9 +11.9 56 +26  1010.1  0.5  719  267           
15 28.06.11 030 (СВ) >10 км    10/8 600 м кучево-дожд., средняя 
[Cb calv|Ac und]
+20.1 +12.9 63 +26  1009  -1.1  718  267    +21.1       
18 28.06.11 300 (СЗ) >10 км    10/8 600 м кучево-дожд., средняя 
[Cb calv|Ac und]
+18.9 +13.2 69 +27  1009.4  -1.1  719  268    +21.1       
21 28.06.11 300 (СЗ) >10 км  слаб. ливневой дождь  10/8 600 м кучево-дожд., средняя 
[Cb cap|Ac und]
+15.4 +14.8 96 +25  1011.8  1.7  720  271           
00 29.06.11 320 (СЗ) >10 км  {гроза, ливн. осадки}  10/8 480 м кучево-дожд., средняя 
[Cb calv|Ac und]
+15 +14.5 97 +25  1010.5  -1.2  719  271           
03 29.06.11 320 (СЗ) >10 км    10/8 300 м кучево-дожд., средняя 
[Cb calv|Ac und]
+15.2 +14.5 96 +24  1011  -1.2  719  271           
06 29.06.11 340 (С) >10 км    10/8 360 м кучево-дожд., средняя 
[Cb calv|Ac und]
+17.4 +14.9 85 +28  1010.5  0.1  719  269  +14.8       
09 29.06.11 350 (С) >10 км    6/6 600 м кучево-дожд. 
[Cb calv]
+21.2 +15.6 70 +32  1009  -0.8  719  265           
12 29.06.11 330 (СЗ) >10 км    8/6 600 м кучево-дожд., средняя 
[Cb calv|Ac trans]
+21.9 +16.2 70 +34  1008.4  -0.4  718  264           
15 29.06.11 300 (СЗ) >10 км    8/0 средняя 
[Ac trans]
+21 +16.4 75 +33  1008.1  -0.5  718  265    +22.3       
18 29.06.11 310 (СЗ) >10 км    6/0 средняя 
[Ac trans]
+18.9 +16.3 85 +32  1008.5  718  267    +22.3       
21 29.06.11 310 (СЗ) >10 км    3/0 средняя 
[Ac trans]
+17.5 +16.3 93 +30  1007.4  -1.3  717  268           
00 30.06.11 320 (СЗ) >10 км    4/0 средняя 
[Ac trans]
+17.4 +16.3 93 +30  1007.4  0.1  717  268           
03 30.06.11 320 (СЗ) >10 км    6/0 средняя 
[Ac trans]
+17.1 +15.7 91 +29  1007.1  -0.4  717  268           
06 30.06.11 310 (СЗ) >10 км    8/6 600 м средняя 
[Cu Sc|Ac trans]
+20.7 +17.2 80 +35  1006.1  -0.3  716  264  +16.3         
09 30.06.11 320 (СЗ) 2000 м    8/5 600 м средняя 
[Cu med, cong|Ac trans]
+23.4 +16.8 66 +37  1004.9  -0.7  716  262           
12 30.06.11 280 (З) >10 км    10/6 600 м кучево-дожд., средняя 
[Cb cap|Ac und]
+22.3 +16.5 70 +35  1005.7  0.7  716  263           
15 30.06.11 280 (З) >10 км    10/8 450 м средняя 
[Sc|Ac und]
+17.5 +14.8 84 +27  1008.2  1.5  717  269    +24.1       
18 30.06.11 250 (З) >10 км  гроза, ливневой дождь  10/8 330 м кучево-дожд., средняя 
[Cb cap|Ac und]
+15.3 +14.5 95 +24  1010.2  1.6  719  271    +24.1       
21 30.06.11 280 (З) >10 км  {гроза, ливн. осадки}  10/8 450 м средняя 
[Cu Sc|Ac As]
+15.2 +14.2 94 +23  1010.5  0.2  719  271           
00 01.07.11 280 (З) >10 км  {гроза, ливн. осадки}  5/5 400 м 
[Sc diur, vesp]
+14 +13 94 +19  1011  0.2  719  273           
03 01.07.11 280 (З) >10 км    3/0 средняя 
[Ac trans]
+14.8 +12.2 84 +19  1010.7  0.1  719  272           
06 01.07.11 280 (З) >10 км    3/3 600 м 
[Cu hum]
+18.5 +13.8 74 +27  1010.6  0.6  719  269  +13.2       
09 01.07.11 300 (СЗ) >10 км    5/4 600 м верхняя 
[Cu hum|Ci fib]
+21.9 +12.8 56 +28  1011.3  1.2  720  266           
12 01.07.11 260 (З) >10 км    5/4 1000 м верхняя 
[Cu hum|Ci fib]
+23.7 +11.8 47 +28  1010.8  -0.2  720  265           
15 01.07.11 360 (С) >10 км    4/3 1000 м верхняя 
[Cu hum|Ci fib]
+23.3 +11.1 46 +27  1010.7  -0.2  720  265    +24.3       
18 01.07.11 030 (СВ) >10 км    3/3 <0100 м средняя 
[Ac trans]
+19.3 +11.9 62 +25  1011.5  0.1  720  269    +24.3       
21 01.07.11 140 (ЮВ) >10 км    ясно 
+17 +12 72 +23  1011.5  -0.4  720  271           
00 02.07.11 140 (ЮВ) >10 км    ясно 
+17.3 +12.2 72 +24  1011  -0.4  719  270           
03 02.07.11 130 (ЮВ) >10 км    ясно 
+18.1 +14 77 +28  1010.8  -0.4  719  269           
Время (UTC), дата Ветер
(°,м/с) 
Видим.   Явления Облачность Т
(°С)
Тd
(°С)
f(%) Тe
(°С)
Pmin
(гПа)
dP
(гПа)
Po
(мм)
O2
(г/м3)
Тmin Tmax R s Состояние
почвы